Home   Weather   Tampa   Past weeks

Flag for USA Past Weather in Tampa, Florida, USA — Yesterday and Last 2 Weeks

70 °F


Feels Like: 70 °F
Forecast: 60 / 83 °F
Wind: 5 mph from Northeast

Location: Tampa, Peter O Knight Airport

Current Time: Oct 24, 2016 at 11:12:02 PM

Latest Report: Oct 24, 2016 at 10:35 PM

Visibility: 10 mi

Pressure: 30.20 "Hg

Humidity: 69%

Dew Point: 59 °F

Location of TampaLocation

Past Weather in Tampa — Graph


Tampa Temperature Yesterday

Maximum temperature yesterday: 81 °F (at 2:35 PM)
Minimum temperature yesterday: 55 °F (at 7:55 AM)
Average temperature yesterday: 69 °F

High & Low Weather Summary for the Past Weeks

High91 °F (Oct 16, 2:55 PM)100% (Oct 15, 7:35 AM)30.27 "Hg (Oct 15, 7:35 AM)
Low55 °F (Oct 23, 7:55 AM)21% (Oct 22, 3:55 PM)29.80 "Hg (Oct 21, 4:35 PM)
Average77 °F68%30.04 "Hg
* Reported Oct 13 3:55 PM — Oct 24 9:55 PM, Tampa, Weather by CustomWeather, © 2016

Note: Actual official high and low records may vary slightly from our data, if they occured in-between our weather recording intervals... More about our weather records


Tampa Weather History for the Previous 24 Hours

Scroll right to see more
Time TempWeatherWind HumidityBarometerVisibility
9:55 PM
Mon, Oct 24
72 °FClear.5 mph65%30.20 "Hg10 mi
9:35 PM72 °FClear.5 mph65%30.19 "Hg10 mi
9:15 PM72 °FClear.3 mph65%30.19 "Hg10 mi
8:55 PM72 °FClear.No wind65%30.18 "Hg10 mi
8:35 PM72 °FClear.5 mph65%30.17 "Hg10 mi
8:15 PM73 °FClear.6 mph57%30.17 "Hg10 mi
7:15 PM73 °FClear.3 mph53%30.16 "Hg10 mi
6:55 PM75 °FClear.5 mph54%30.15 "Hg10 mi
6:15 PM79 °FSunny.3 mph45%30.14 "Hg10 mi
5:55 PM81 °FSunny.5 mph42%30.15 "Hg10 mi
5:15 PM81 °FSunny.6 mph42%30.14 "Hg10 mi
4:55 PM81 °FSunny.6 mph42%30.14 "Hg10 mi
4:35 PM81 °FSunny.6 mph42%30.14 "Hg10 mi
4:15 PM82 °FSunny.3 mph40%30.15 "Hg10 mi
3:55 PM81 °FSunny.7 mph42%30.15 "Hg10 mi
3:35 PM81 °FSunny.5 mph39%30.16 "Hg10 mi
3:15 PM81 °FSunny.8 mph42%30.17 "Hg10 mi
2:55 PM82 °FSunny.8 mph40%30.17 "Hg10 mi
2:35 PM81 °FSunny.5 mph42%30.18 "Hg10 mi
2:15 PM81 °FSunny.6 mph42%30.19 "Hg10 mi
1:55 PM81 °FSunny.6 mph42%30.20 "Hg10 mi
1:15 PM79 °FSunny.5 mph48%30.22 "Hg10 mi
12:55 PM79 °FSunny.3 mph48%30.23 "Hg10 mi
12:15 PM79 °FSunny.6 mph45%30.24 "Hg10 mi
11:55 AM79 °FSunny.5 mph42%30.25 "Hg10 mi
11:35 AM77 °FSunny.5 mph44%30.26 "Hg10 mi
11:15 AM75 °FSunny.7 mph47%30.26 "Hg10 mi
10:55 AM75 °FSunny.7 mph47%30.27 "Hg10 mi
10:35 AM73 °FSunny.8 mph50%30.27 "Hg10 mi
10:15 AM72 °FSunny.10 mph50%30.27 "Hg10 mi
9:55 AM70 °FSunny.9 mph57%30.27 "Hg10 mi
9:35 AM70 °FSunny.9 mph57%30.27 "Hg10 mi
9:15 AM68 °FSunny.8 mph64%30.26 "Hg10 mi
8:55 AM64 °FSunny.7 mph73%30.26 "Hg10 mi
8:15 AM63 °FSunny.8 mph73%30.25 "Hg10 mi
7:55 AM63 °FSunny.8 mph73%30.24 "Hg10 mi
7:35 AM63 °FClear.7 mph73%30.24 "Hg10 mi
7:15 AM61 °FClear.7 mph77%30.23 "Hg10 mi
6:55 AM63 °FClear.6 mph77%30.23 "Hg10 mi
6:35 AM61 °FClear.8 mph83%30.22 "Hg10 mi
6:15 AM61 °FClear.6 mph83%30.22 "Hg10 mi
5:55 AM63 °FPassing clouds.7 mph77%30.21 "Hg10 mi
5:35 AM61 °FPassing clouds.7 mph83%30.21 "Hg10 mi
5:15 AM63 °FPassing clouds.8 mph77%30.21 "Hg10 mi
4:55 AM63 °FPassing clouds.6 mph77%30.21 "Hg10 mi
4:35 AM63 °FClear.7 mph77%30.20 "Hg10 mi
4:15 AM63 °FClear.8 mph77%30.21 "Hg10 mi
3:55 AM63 °FClear.8 mph77%30.21 "Hg10 mi
3:35 AM63 °FClear.6 mph77%30.21 "Hg10 mi
3:15 AM63 °FClear.5 mph77%30.22 "Hg10 mi
2:55 AM63 °FClear.6 mph77%30.22 "Hg10 mi
2:15 AM63 °FClear.7 mph77%30.23 "Hg10 mi
1:55 AM63 °FClear.7 mph77%30.23 "Hg10 mi
1:35 AM63 °FClear.7 mph77%30.23 "Hg10 mi
1:15 AM64 °FClear.9 mph78%30.23 "Hg10 mi
12:55 AM64 °FClear.8 mph78%30.23 "Hg10 mi
12:15 AM64 °FClear.9 mph78%30.23 "Hg10 mi
11:55 PM
Sun, Oct 23
66 °FClear.8 mph73%30.23 "Hg10 mi
11:35 PM66 °FClear.8 mph73%30.23 "Hg10 mi
11:15 PM66 °FClear.9 mph78%30.23 "Hg10 mi
Weather by CustomWeather, © 2016

See weather overviewHow to use our weather pages